ONEWEB-0214, 48788

Orbit data source: Space-Track

ONEWEB-0214, 48788 is a payload satellite owned by One Web (NAA) (UK) in LEO that was launched on Fri, 28 May 2021 UTC via a SOYUZ-2-1B launch vehicle from the Vostochny Cosmodrome (VOSTO). Payload-class satellites include a variety of spacecraft equipped with specific instruments for various scientific and technological missions. These include communications satellites like Starlink; space stations such as the ISS; scientific satellites like the Hubble; Earth observation satellites from companies like Planet Labs, Umbra, and HawkEye 360; GPS; miniature CubeSats for education and research; and military/defense satellites.

Loading next visibility...
Identifier
48788, 2021-045X
Orbit
LEO
Country
Flag of UKUK
Related business
Manufacturer
One Web
Mission
Operational Commercial Communications
Bus & Motor
ARROW, Unknown motor
Mass
148 kg wet, ~140 kg dry
Launch date (UTC)
2021-05-28 (5 years ago)
Launch vehicle
SOYUZ-2-1B
Launch site
Vostochny Cosmodrome (VOSTO)
Object type
Payload
Rocket body
Debris
Shape & HBR
Trap Box + 2 Pan, 6.7 m
Radar Cross Section
3.464 m², Large (>1 m²)

Expand to show TLE details & history
Last TLE update: 2 days ago

TLE from 2 days ago
0 ONEWEB-0214
1 48788U 21045X   26171.27912828 -.00000061  00000-0 -19723-3 0  9997
2 48788  87.9011 258.5656 0001773  91.1066 269.0268 13.15549008244695
Epoch: 2026-06-20T06:41Z
TLE epoch observation values (Epoch: 2026-06-20T06:41:56.683Z)
Latitude
0.00004°
Longitude
-110.41661°
Altitude
1,204.687 km
Speed
7.252 km/s
True Right ascension
17h 14m 15s
True Declination
0° 00' 00"
Sunlit
Object was in full shadow at epoch
Visualization orbit readout
Latitude
Unknown
Longitude
Unknown
Altitude
Unknown
Speed
Unknown
Apparent Right ascension
Unknown
Apparent Declination
Unknown
Sunlit
N/A
Visualization observer readout
Local Sidereal Time
21:27:01
Azimuth
Unknown
Elevation
Unknown
Doppler factor
Unknown
Orbital elements
Apogee altitude
1,200.224 km
Perigee altitude
1,197.538 km
Semi-major axis
7,577.018 km
Eccentricity
0.00018
Inclination
87.9011°
RAAN
258.5656°
Arg. of periapsis
91.1066°
True anomaly
269.00649°
Mean anomaly
269.0268°
Eccentric anomaly
269.01664°
Mean motion
3.29076 °/min
Orbital period
109.4 mins
BSTAR
-0.00019723
Loading maneuver chart data...
Computing Atmospheric mass density...
Loading historical data...
Loading historical data...
Loading historical data...
Loading historical data...
Loading historical data...
Loading historical data...
Loading historical data...

Documentation

Showing up to 5 results
|